Location: Sobotiste
(48.7170°N, 17.4000°E)
Time: 08:28:21
(UTC+02:00)

AO-73 - Pass Details

Date: 17 March 2026
Orbit: 514 x 567 km, 97.8° (Epoch: 14 April)

Event Time Altitude Azimuth Distance (km) Brightness Sun altitude
Rises 04:51:44 0° 360° (N) 2,670 ? -12.0°
Maximum altitude 04:56:58 18° 297° (WNW) 1,315 ? -11.2°
Enters shadow 04:58:15 16° 272° (W) 1,430 ? -11.0°
